Lid_Strength_Index
2 3 3 3 2 2 2 2 2 2 2 1 1 2 3 3 2 9 11 5 3 -1 -1 5 7 7 8 9 9 8 13 15 15 14 17 15 16 15 15 15 16 15 18 15 15
3 3 3 3 3 3 3 2 2 2 2 2 2 2 3 3 8 11 4 2 1 -0 5 7 8 8 12 12 12 12 15 15 13 13 15 16 16 20 18 19 18 17 15 17 17
3 3 3 3 3 3 3 3 3 3 2 2 2 2 3 5 10 11 3 3 2 3 6 6 7 8 12 12 14 15 17 14 13 13 13 16 17 18 17 19 19 18 18 16 18
4 4 4 4 3 3 3 3 3 3 3 3 2 2 3 8 17 11 3 3 2 5 6 7 8 11 13 14 12 16 15 14 14 13 14 15 16 21 19 19 16 17 16 17 17
4 4 4 4 4 4 3 3 3 3 3 3 3 2 8 14 14 10 5 7 8 7 8 9 10 11 13 13 12 14 15 14 14 15 16 16 20 19 18 18 16 17 16 17 18
4 4 4 4 4 4 3 3 3 3 3 3 3 3 11 16 11 11 11 10 10 9 9 9 10 10 12 13 14 13 13 14 14 14 15 17 21 18 18 16 17 16 16 16 16
5 5 5 4 4 4 4 4 4 4 4 4 3 8 14 15 12 12 11 12 11 10 10 9 9 10 11 14 12 13 15 14 13 13 14 14 17 20 16 16 16 16 15 15 15
5 5 5 4 4 4 4 4 4 4 4 4 3 11 16 11 13 12 12 12 12 11 11 10 9 11 12 12 13 15 15 19 14 13 13 14 19 13 15 16 17 16 15 15 15
5 5 5 4 4 4 4 4 4 4 4 4 11 12 16 9 13 12 13 14 13 12 11 10 11 13 13 15 18 18 21 19 17 15 15 16 19 13 14 15 16 15 15 15 15
5 5 5 4 4 4 3 4 5 6 9 10 11 14 14 15 13 13 13 13 14 13 12 13 15 18 19 19 22 21 21 19 19 18 17 18 18 16 14 14 14 15 14 14 14
5 5 5 4 4 3 7 9 12 11 14 17 17 16 15 13 13 13 13 14 13 14 17 16 19 22 20 19 18 18 19 20 18 17 17 19 18 16 15 15 15 15 15 14 13
5 5 5 5 4 4 10 14 14 13 15 14 15 15 14 14 15 14 13 15 15 18 17 17 21 19 17 17 18 19 20 21 19 16 18 18 18 17 16 15 15 15 15 14 14
5 5 5 5 4 9 12 13 10 10 14 15 15 15 15 14 16 16 16 16 18 18 19 20 19 17 18 19 19 20 21 21 21 18 17 19 18 17 17 16 15 14 14 13 14
5 6 5 5 9 12 13 10 9 10 16 15 16 15 14 15 16 15 16 17 17 20 19 20 19 19 20 20 20 21 19 19 19 20 23 19 21 19 18 18 15 15 15 14 14
5 6 6 5 11 13 11 10 10 11 22 15 16 14 15 16 17 16 16 16 19 19 20 21 21 21 20 20 19 20 19 20 20 21 21 20 23 18 19 18 17 17 14 14 13
6 6 6 10 11 12 10 11 11 17 22 18 16 17 17 17 17 16 17 16 17 19 20 22 20 20 20 19 19 18 19 20 20 21 23 22 22 19 18 18 16 16 16 14 13
6 7 9 10 12 11 11 11 16 21 17 18 19 18 19 19 18 18 19 20 20 22 20 21 22 21 20 20 19 19 21 25 24 24 23 23 24 19 17 15 16 16 16 16 14
5 7 9 10 10 11 11 14 21 19 18 18 19 19 20 20 20 19 20 20 20 21 23 22 22 22 20 22 22 21 21 24 28 26 24 22 24 18 16 16 16 15 15 15 16
6 10 10 11 10 11 13 21 18 17 16 19 19 21 20 20 21 20 21 20 20 20 22 23 21 22 21 21 21 21 22 22 28 34 28 23 20 16 17 16 16 16 16 16 16
10 9 11 11 11 11 16 17 18 16 17 18 19 18 21 20 21 21 21 19 20 19 20 21 23 22 22 21 21 22 21 23 25 29 30 23 22 20 17 16 16 16 16 15 15
9 10 10 11 11 15 19 19 17 16 16 18 19 20 20 21 20 21 20 19 18 20 20 21 21 22 22 23 22 24 23 23 23 23 28 28 23 18 17 16 15 16 15 15 15
8 13 11 11 16 18 21 19 15 17 17 17 18 18 19 19 20 20 19 19 18 19 21 20 22 25 22 23 22 21 21 21 26 25 24 24 22 14 15 16 16 16 14 12 14
10 11 11 12 16 18 19 18 17 17 17 17 17 17 17 18 16 19 20 19 19 19 20 19 23 27 22 22 22 23 21 20 23 24 25 26 21 16 15 13 13 13 13 12 12
11 15 15 15 16 15 17 17 17 18 18 18 18 18 18 19 18 17 18 19 19 18 16 16 22 22 21 19 21 23 23 22 24 27 20 21 19 16 14 14 13 13 13 12 12
12 16 15 17 17 18 15 16 18 19 19 18 19 18 18 19 18 19 18 18 19 17 18 18 25 24 22 20 21 20 19 20 23 20 23 19 18 16 14 14 13 12 13 14 14
16 16 17 18 17 17 16 18 18 18 18 19 19 18 17 18 17 20 19 19 18 20 20 20 23 26 27 22 20 21 19 19 18 18 18 18 19 14 13 13 14 13 14 15 14
16 16 14 16 18 17 18 16 17 16 16 15 16 17 18 17 16 15 15 15 16 18 21 21 23 24 27 24 26 25 20 18 18 18 17 20 16 15 16 15 14 14 15 14 13